Flag for Taiwan Weather past 2 weeks in Taichung, Taiwan

68 °F

Passing clouds.

Feels Like: 68 °F
Forecast: 66 / 83 °F
Wind: 7 mph from Northeast

Location: Chiang Kai Shek

Current Time: Dec 1, 2015 at 3:28:16 AM

Latest Report: Dec 1, 2015 at 3:00 AM

Visibility: N/A

Pressure: 30.07 "Hg

Humidity: 83%

Dew point: 63 °F

Location of TaichungLocation

Historic Weather in Taichung — Graph


Taichung temperature yesterday

Maximum temperature yesterday: 73 °F (at 11:00 AM)
Minimum temperature yesterday: 66 °F (at 4:00 AM)
Average temperature yesterday: 69 °F

Past Weeks' High & Low Weather Summary

High88 °F (Nov 16, 12:00 PM)94% (Nov 16, 11:00 PM)30.33 "Hg (Nov 16, 11:00 PM)
Low54 °F (Nov 26, 8:00 PM)40% (Nov 26, 2:00 PM)29.92 "Hg (Nov 16, 2:00 AM)
Average72 °F72%30.08 "Hg
* Reported Nov 16 2:00 AM — Dec 1 2:00 AM, Taichung, Weather by CustomWeather, © 2015

Note: Actual official high and low records may vary slightly from our data, if they occured in-between our weather recording intervals... More about our weather records


Taichung weather history for previous 24 hours

Time TempWeatherWind HumidityBarometerVisibility
2:00 AM
Tue, Dec 1
66 °FPassing clouds.8 mph83%30.07 "HgN/A
1:30 AM68 °FPassing clouds.9 mph83%30.07 "HgN/A
1:00 AM68 °FPassing clouds.8 mph83%30.07 "HgN/A
12:30 AM68 °FPassing clouds.8 mph78%30.07 "HgN/A
12:00 AM68 °FPassing clouds.7 mph78%30.07 "HgN/A
11:30 PM
Mon, Nov 30
68 °FPassing clouds.7 mph83%30.07 "HgN/A
11:00 PM66 °FPartly cloudy.8 mph83%30.09 "HgN/A
10:30 PM68 °FPartly cloudy.10 mph83%30.09 "HgN/A
10:00 PM68 °FPassing clouds.9 mph78%30.09 "HgN/A
9:30 PM68 °FPartly cloudy.8 mph78%30.09 "HgN/A
9:00 PM68 °FPartly cloudy.9 mph78%30.09 "HgN/A
8:30 PM68 °FPartly cloudy.8 mph78%30.09 "HgN/A
8:00 PM68 °FPartly cloudy.8 mph78%30.09 "HgN/A
7:30 PM70 °FPassing clouds.9 mph73%30.09 "HgN/A
7:00 PM68 °FPartly cloudy.12 mph78%30.07 "HgN/A
6:30 PM70 °FPartly cloudy.13 mph78%30.07 "HgN/A
6:00 PM68 °FPartly cloudy.10 mph78%30.07 "HgN/A
5:30 PM70 °FPartly cloudy.12 mph73%30.07 "HgN/A
5:00 PM70 °FPartly sunny.10 mph73%30.07 "HgN/A
4:30 PM70 °FPartly sunny.12 mph78%30.07 "HgN/A
4:00 PM72 °FPartly sunny.13 mph69%30.04 "HgN/A
3:30 PM72 °FBroken clouds.16 mph69%30.04 "HgN/A
3:00 PM72 °FPartly sunny.17 mph73%30.07 "HgN/A
2:30 PM72 °FPartly sunny.16 mph73%30.07 "HgN/A
2:00 PM72 °FPartly sunny.15 mph73%30.07 "HgN/A
1:30 PM72 °FPartly sunny.14 mph73%30.07 "HgN/A
1:00 PM70 °FPartly sunny.12 mph78%30.07 "HgN/A
12:30 PM70 °FPartly sunny.14 mph78%30.09 "HgN/A
11:30 AM73 °FPartly sunny.14 mph74%30.12 "HgN/A
11:00 AM73 °FPartly sunny.13 mph74%30.12 "HgN/A
10:30 AM72 °FBroken clouds.10 mph73%30.15 "HgN/A
10:00 AM72 °FPartly sunny.8 mph78%30.15 "HgN/A
9:30 AM70 °FPartly sunny.8 mph83%30.15 "HgN/A
8:30 AM68 °FLight rain. Partly sunny.10 mph88%30.15 "HgN/A
8:00 AM68 °FLight rain. Partly sunny.7 mph88%30.15 "HgN/A
7:30 AM68 °FMostly cloudy.6 mph88%30.12 "HgN/A
7:00 AM66 °FPartly sunny.5 mph94%30.12 "HgN/A
6:30 AM66 °FLight rain. Mostly cloudy.6 mph94%30.12 "HgN/A
6:00 AM66 °FLight rain. Passing clouds.6 mph94%30.12 "Hg6 mi
5:00 AM66 °FDrizzle. Mostly cloudy.8 mph88%30.12 "HgN/A
4:30 AM66 °FDrizzle. Mostly cloudy.9 mph94%30.12 "Hg6 mi
4:00 AM66 °FDrizzle. Mostly cloudy.8 mph88%30.12 "HgN/A
3:30 AM68 °FDrizzle. Mostly cloudy.12 mph83%30.12 "Hg6 mi
3:00 AM68 °FLight rain. Mostly cloudy.15 mph83%30.12 "HgN/A
Weather by CustomWeather, © 2015

See weather overviewHow to use our weather pages